JCSAT-17 1 45245U 20013A 21063.12796300 -.00000324 00000-0 00000-0 0 9996 2 45245 6.6270 344.1252 0004269 350.8734 9.1283 1.00272922 3871 GEO-KOMPSAT-2B 1 45246U 20013B 21063.78883090 -.00000356 00000-0 00000-0 0 9997 2 45246 0.0375 335.3516 0001741 75.6493 163.9326 1.00268578 3900 ARIANE 5 DEB [SYLDA] 1 45247U 20013C 21063.13901649 .00006799 00000-0 24648-2 0 9990 2 45247 5.5414 144.6588 7198309 141.0502 303.0791 2.37776939 8834 ARIANE 5 R/B 1 45248U 20013D 21064.01058767 .00000897 00000-0 35714-3 0 9993 2 45248 5.2714 146.9841 7254211 138.5116 308.2775 2.30996218 8756